Location: Düngen
(52.0952°N, 10.0219°E)
Time: 14:47:59
(UTC+00:00)

SL-08 R/B - Pass Details

Date: 11 March 2026
Orbit: 667 x 729 km, 98.5° (Epoch: 14 April)

Event Time Altitude Azimuth Distance (km) Brightness Sun altitude
Rises 18:49:46 0° 24° (NNE) 3,035 6.5 -14.9°
Reaches altitude 10° 18:52:23 10° 39° (NE) 2,123 5.6 -15.3°
Enters shadow 18:55:19 23° 76° (ENE) 1,446 4.4 -15.7°
